KI6IKQ Weather Reports


time (UTC)temp
C
wind
direction
speed
KPH
gust
KPH
rain 1hr
cm
rain 24hr
cm
rain mn
cm
humidity
%
barometer
mb
20260506112703 11 0 0.0 0.0 0.00 0.03 0.00 89 1018.9
20260506111806 11 0 0.0 0.0 0.00 0.03 0.00 89 1018.9
20260506110903 12 0 0.0 0.0 0.00 0.03 0.00 89 1018.6
20260506110003 12 0 0.0 0.0 0.00 0.03 0.00 89 1018.6
20260506105403 12 312 1.6 3.2 0.00 0.03 0.00 89 1018.6
20260506104503 12 312 1.6 6.4 0.00 0.03 0.00 89 1018.5
20260506103603 12 312 1.6 4.8 0.00 0.03 0.00 89 1018.5
20260506102703 11 312 1.6 4.8 0.00 0.03 0.00 89 1018.5
20260506101803 11 313 0.0 3.2 0.00 0.03 0.00 88 1018.5
20260506100903 11 312 1.6 6.4 0.00 0.03 0.00 88 1018.3
20260506100003 11 301 1.6 6.4 0.00 0.03 0.00 88 1018.3
20260506095403 11 299 1.6 6.4 0.00 0.03 0.00 88 1018.3
20260506094503 11 318 0.0 3.2 0.00 0.03 0.00 88 1018.0
20260506093603 11 313 1.6 6.4 0.00 0.03 0.00 88 1018.0
20260506092724 11 294 1.6 6.4 0.00 0.03 0.00 88 1017.9
20260506091803 11 294 0.0 3.2 0.00 0.03 0.00 88 1018.0
20260506090903 11 294 0.0 1.6 0.00 0.03 0.00 88 1018.0
20260506090024 11 294 0.0 3.2 0.00 0.03 0.00 88 1018.1
20260506085403 11 294 0.0 1.6 0.00 0.03 0.00 88 1018.1
20260506084503 11 294 0.0 1.6 0.00 0.03 0.00 87 1018.3
20260506083624 11 0 0.0 0.0 0.00 0.03 0.00 86 1018.3
20260506082703 11 0 0.0 0.0 0.00 0.03 0.00 85 1018.4
20260506081824 11 0 0.0 0.0 0.00 0.03 0.00 85 1018.5
20260506080903 11 0 0.0 0.0 0.00 0.03 0.00 85 1018.4
20260506072703 12 294 0.0 1.6 0.00 0.13 0.00 85 1018.1
20260506071803 12 294 0.0 4.8 0.00 0.13 0.00 85 1018.1
20260506070903 12 289 1.6 4.8 0.00 0.13 0.00 85 1017.8
20260506061824 12 292 3.2 6.4 0.00 0.13 0.13 85 1017.3
20260506060924 12 265 1.6 4.8 0.00 0.13 0.13 84 1017.1
20260506050924 13 250 1.6 6.4 0.00 0.13 0.13 81 1016.6
20260506044503 14 249 1.6 4.8 0.00 0.13 0.13 80 1016.5
20260506043603 14 249 0.0 4.8 0.00 0.13 0.13 79 1016.3
20260506042703 15 249 0.0 3.2 0.00 0.13 0.13 79 1016.1
20260506041803 15 250 1.6 4.8 0.00 0.13 0.13 79 1016.1
20260506040903 15 250 1.6 4.8 0.00 0.13 0.13 78 1016.0
20260506040003 15 250 1.6 4.8 0.00 0.13 0.13 77 1015.9
20260506035424 15 250 1.6 6.4 0.00 0.13 0.13 77 1015.9
20260506034503 16 250 1.6 6.4 0.00 0.13 0.13 76 1015.7
20260506033603 16 249 1.6 6.4 0.00 0.13 0.13 76 1015.6
20260506032703 16 248 1.6 8.0 0.00 0.13 0.13 75 1015.6
20260506031803 16 243 1.6 8.0 0.00 0.13 0.13 75 1015.5
20260506030903 16 249 1.6 6.4 0.00 0.13 0.13 75 1015.2
20260506030003 16 272 3.2 8.0 0.00 0.13 0.13 74 1015.2
20260506025403 16 265 3.2 6.4 0.00 0.13 0.13 74 1015.2
20260506024503 16 274 3.2 11.3 0.03 0.13 0.13 74 1015.1
20260506023603 17 264 3.2 9.7 0.03 0.13 0.13 73 1015.0
20260506022703 17 250 3.2 9.7 0.03 0.13 0.13 73 1014.9
20260506021803 17 245 3.2 9.7 0.03 0.13 0.13 72 1014.8
20260506020903 17 242 3.2 6.4 0.03 0.13 0.13 72 1014.8
20260506020024 17 251 3.2 11.3 0.03 0.13 0.13 71 1014.8
20260506015403 17 270 4.8 14.5 0.03 0.13 0.13 71 1014.7
20260506014503 17 275 4.8 11.3 0.00 0.10 0.10 71 1014.7
20260506013603 17 253 3.2 11.3 0.00 0.10 0.10 71 1014.8
20260506012703 17 270 3.2 9.7 0.00 0.10 0.10 72 1014.8
20260506011803 17 254 3.2 8.0 0.00 0.10 0.10 71 1014.8
20260506010903 17 261 4.8 11.3 0.00 0.10 0.10 71 1014.8
20260506010003 18 265 3.2 11.3 0.00 0.10 0.10 71 1015.0
20260506005403 18 270 3.2 11.3 0.00 0.10 0.10 70 1015.0
20260506004503 18 255 4.8 11.3 0.00 0.10 0.10 70 1015.0
20260506003603 18 254 3.2 11.3 0.00 0.10 0.10 69 1015.0
20260506002703 18 236 3.2 8.0 0.00 0.10 0.10 69 1014.9
20260506001803 18 236 3.2 14.5 0.00 0.10 0.10 70 1014.9
20260506000903 18 230 3.2 12.9 0.00 0.10 0.10 70 1014.7
20260506000003 18 218 3.2 8.0 0.00 0.10 0.10 71 1014.6
20260505235403 17 235 3.2 6.4 0.00 0.10 0.10 72 1014.7
20260505234503 17 233 3.2 12.9 0.00 0.10 0.10 72 1014.8
20260505233606 17 268 4.8 12.9 0.00 0.10 0.10 73 1014.8
20260505232703 17 255 3.2 11.3 0.00 0.10 0.10 72 1014.8
20260505231803 17 256 3.2 12.9 0.00 0.10 0.10 73 1014.8
20260505230903 17 258 3.2 9.7 0.00 0.10 0.10 74 1014.8
20260505230003 17 258 3.2 12.9 0.00 0.10 0.10 74 1014.8
20260505225403 17 261 4.8 12.9 0.00 0.10 0.10 74 1014.7
20260505224503 17 255 3.2 11.3 0.00 0.10 0.10 74 1014.8
20260505223603 17 254 3.2 8.0 0.00 0.10 0.10 74 1014.9
20260505222703 17 249 3.2 9.7 0.00 0.10 0.10 74 1014.9
20260505221804 17 221 3.2 8.0 0.00 0.10 0.10 75 1014.9
20260505220903 17 266 3.2 11.3 0.00 0.10 0.10 76 1015.0
20260505220003 16 271 3.2 9.7 0.00 0.10 0.10 77 1015.0
20260505215424 16 253 3.2 8.0 0.00 0.10 0.10 76 1015.0
20260505214503 16 257 3.2 14.5 0.00 0.10 0.10 77 1015.2
20260505213603 16 283 3.2 11.3 0.00 0.10 0.10 77 1015.2
20260505212703 16 245 1.6 6.4 0.00 0.10 0.10 77 1015.2
20260505211803 16 252 3.2 6.4 0.00 0.10 0.10 77 1015.3
20260505210903 16 279 3.2 9.7 0.00 0.10 0.10 78 1015.3
20260505210003 16 250 3.2 8.0 0.00 0.10 0.10 77 1015.2
20260505205403 16 257 3.2 9.7 0.00 0.10 0.10 77 1015.3
20260505204503 16 245 3.2 11.3 0.00 0.10 0.10 77 1015.4
20260505203603 16 234 1.6 11.3 0.00 0.10 0.10 77 1015.5
20260505202703 16 266 3.2 11.3 0.00 0.10 0.10 77 1015.5
20260505201803 16 275 3.2 12.9 0.00 0.10 0.10 78 1015.5
20260505200903 16 274 3.2 6.4 0.00 0.10 0.10 78 1015.5
20260505200003 16 294 3.2 8.0 0.00 0.10 0.10 78 1015.5
20260505195403 16 267 3.2 9.7 0.00 0.10 0.10 78 1015.6
20260505194503 16 249 3.2 8.0 0.00 0.10 0.10 78 1015.6
20260505193603 16 315 3.2 8.0 0.00 0.10 0.10 79 1015.6
20260505192703 15 335 3.2 12.9 0.00 0.10 0.10 81 1015.7
20260505191803 15 288 3.2 8.0 0.00 0.10 0.10 82 1015.7
20260505190903 15 277 0.0 4.8 0.00 0.10 0.10 81 1015.7
20260505190004 15 277 1.6 6.4 0.00 0.10 0.10 82 1015.7
20260505185403 15 278 3.2 6.4 0.00 0.10 0.10 82 1015.7
20260505184503 15 274 3.2 9.7 0.00 0.10 0.10 83 1015.5
20260505183603 15 261 3.2 9.7 0.00 0.10 0.10 84 1015.5
20260505182703 14 278 3.2 9.7 0.00 0.10 0.10 83 1015.5
20260505181803 14 290 4.8 11.3 0.00 0.10 0.10 83 1015.5
20260505180903 14 286 4.8 12.9 0.00 0.10 0.10 83 1015.3
20260505180003 14 273 4.8 12.9 0.00 0.10 0.10 83 1015.3
20260505175424 14 269 3.2 12.9 0.00 0.10 0.10 83 1015.2
20260505174503 14 259 3.2 8.0 0.00 0.10 0.10 83 1015.1
20260505173603 13 259 3.2 11.3 0.00 0.10 0.10 83 1015.1
20260505172703 13 268 3.2 11.3 0.00 0.10 0.10 84 1015.1
20260505171803 13 241 1.6 6.4 0.00 0.10 0.10 84 1015.1
20260505170903 13 258 3.2 6.4 0.00 0.10 0.10 84 1015.2
20260505170003 13 260 1.6 6.4 0.00 0.10 0.10 84 1015.2
20260505165403 13 253 1.6 8.0 0.00 0.10 0.10 84 1015.1
20260505164503 13 246 1.6 6.4 0.00 0.10 0.10 85 1014.9
20260505163603 13 244 3.2 9.7 0.00 0.10 0.10 85 1015.0
20260505162703 13 251 1.6 6.4 0.00 0.10 0.10 85 1015.0
20260505161824 13 246 1.6 6.4 0.00 0.10 0.10 86 1015.0
20260505160924 13 243 1.6 6.4 0.00 0.10 0.10 86 1015.0
20260505152703 12 238 0.0 4.8 0.00 0.10 0.10 87 1014.8
20260505151803 12 230 0.0 3.2 0.00 0.10 0.10 88 1014.7
20260505150903 12 250 1.6 4.8 0.00 0.10 0.10 88 1014.7
20260505124524 11 226 0.0 1.6 0.00 0.10 0.10 91 1013.7
20260505123624 11 224 0.0 1.6 0.00 0.10 0.10 91 1013.6
20260505122724 11 222 0.0 3.2 0.00 0.10 0.10 91 1013.7
20260505121803 11 220 0.0 3.2 0.00 0.10 0.10 91 1013.8
20260505120903 11 227 0.0 3.2 0.00 0.10 0.10 92 1014.1
20260505120003 11 231 0.0 1.6 0.00 0.10 0.10 91 1014.1
20260505115403 11 238 0.0 1.6 0.00 0.10 0.10 91 1014.1
20260505114506 11 260 0.0 3.2 0.00 0.10 0.10 91 1014.1
20260505113603 11 286 0.0 3.2 0.00 0.10 0.10 91 1013.9